Flag for Russia Weather past 2 weeks in Ulyanovsk, Russia

Now
72 °F

Scattered clouds.


Feels Like: 75 °F
Forecast: 54 / 66 °F
Wind: 17 mph from South

Location: Ulyanovsk

Current Time: Aug 29, 2014 at 2:09:58 PM

Latest Report: Aug 29, 2014 at 1:00 PM


Visibility: 5 mi

Pressure: 29.36 "Hg

Humidity: 69%

Dew point: 61 °F

Location of UlyanovskLocation

Historic Weather in Ulyanovsk — Graph

°F

Ulyanovsk temperature yesterday

Maximum temperature yesterday: 63 °F (at 4:00 AM)
Minimum temperature yesterday: 55 °F (at 10:00 PM)
Average temperature yesterday: 59 °F

Past Weeks' High & Low Weather Summary

 TemperatureHumidityPressure
High100 °F (Aug 16, 2:00 PM)100% (Aug 15, 5:00 AM)30.12 "Hg (Aug 15, 5:00 AM)
Low45 °F (Aug 25, 6:00 AM)29% (Aug 16, 4:00 PM)29.39 "Hg (Aug 29, 12:00 PM)
Average68 °F78%29.85 "Hg
* Reported Aug 14 12:00 Noon — Aug 29 12:00 Noon, Ulyanovsk, Weather by CustomWeather, © 2014

Note: Actual official high and low records may vary slightly from our data, if they occured in-between our weather recording intervals... More about our weather records

Advertising

Ulyanovsk weather history for previous 24 hours

 ConditionsComfort  
Time TempWeatherWind HumidityBarometerVisibility
12:00 PM
Aug 29
72 °FScattered clouds.13 mph78%29.39 "Hg5 mi
11:00 AM68 °FPartly sunny.8 mph88%29.42 "Hg5 mi
10:00 AM64 °FPartly sunny.6 mph100%29.45 "Hg5 mi
9:00 AM59 °FFog.3 mph94%29.47 "Hg3 mi
8:00 AM57 °FSprinkles. Fog.3 mph94%29.47 "Hg3 mi
7:00 AM55 °FSprinkles. Fog.3 mph100%29.53 "Hg2 mi
6:00 AM55 °FSprinkles. Fog.No wind100%29.56 "Hg2 mi
5:00 AM55 °FSprinkles. Fog.No wind100%29.56 "Hg3 mi
4:00 AM55 °FSprinkles. Fog.3 mph100%29.56 "Hg2 mi
3:00 AM55 °FSprinkles. Fog.6 mph100%29.62 "Hg3 mi
2:00 AM55 °FFog.6 mph100%29.62 "Hg3 mi
1:00 AM55 °FFog.3 mph100%29.65 "Hg3 mi
12:00 AM55 °FFog.6 mph100%29.68 "Hg3 mi
11:00 PM
Aug 28
55 °FFog.3 mph100%29.71 "Hg3 mi
10:00 PM55 °FFog.No wind100%29.74 "Hg3 mi
9:00 PM57 °FFog.1 mph94%29.74 "Hg3 mi
8:00 PM57 °FFog.6 mph100%29.74 "Hg3 mi
7:00 PM57 °FSprinkles. Mostly cloudy.8 mph100%29.74 "Hg5 mi
6:00 PM57 °FSprinkles. Mostly cloudy.10 mph100%29.77 "Hg5 mi
5:00 PM59 °FSprinkles. Mostly cloudy.8 mph100%29.77 "Hg5 mi
4:00 PM59 °FSprinkles. Mostly cloudy.6 mph100%29.80 "Hg3 mi
3:00 PM59 °FSprinkles. Mostly cloudy.8 mph100%29.80 "Hg3 mi
2:00 PM59 °FSprinkles. Mostly cloudy.6 mph100%29.80 "Hg2 mi
Weather by CustomWeather, © 2014

See weather overviewHow to use our weather pages